Theta_e
309 309 309 309 307 306 301 297 297 307 307 298 294 295 299 303 303 307 306 303 303 301 302 303 302 302 304 313 307 301 301 295 292 295 301 302 298 294 292 289 287 288 286 288
309 309 308 308 307 306 295 293 297 309 306 293 292 296 302 305 304 305 306 303 305 305 301 298 305 305 312 311 309 304 301 294 289 293 296 301 298 297 294 291 289 288 285 289
308 309 308 308 307 306 299 296 293 302 303 299 297 296 298 299 306 307 307 303 305 302 301 302 302 304 309 310 310 315 307 295 293 290 292 295 294 298 296 293 287 288 289 292
307 308 308 308 306 306 294 295 295 300 296 300 299 298 300 300 300 304 305 300 302 299 297 299 301 305 305 307 311 306 302 297 297 296 300 299 297 297 297 294 294 291 293 293
306 307 308 308 306 306 297 292 299 303 297 299 299 299 300 300 302 302 302 301 304 301 298 300 300 303 300 300 304 301 299 296 295 295 300 300 297 300 299 298 297 295 296 295
306 306 307 308 307 303 300 302 303 302 298 297 296 297 297 299 301 303 307 306 304 302 305 307 304 305 304 303 301 300 298 297 292 291 299 297 292 298 299 299 300 299 294 297
304 306 306 307 307 301 295 299 302 300 294 297 297 301 302 301 301 299 304 308 303 308 311 308 306 307 308 308 305 303 298 296 293 291 293 287 296 304 305 302 304 304 303 302
303 304 305 306 306 306 291 293 303 300 295 300 301 303 301 301 301 300 305 310 311 309 307 301 297 298 300 303 305 303 302 298 293 291 289 295 301 303 303 299 299 306 303 304
303 304 305 305 306 306 292 292 299 303 297 297 305 302 300 297 297 301 304 307 309 306 302 299 292 292 296 295 299 303 302 300 296 292 289 288 298 305 309 304 293 304 307 305
302 303 304 305 305 306 295 291 298 304 300 303 303 298 298 301 299 296 299 304 304 302 297 295 293 293 298 294 295 295 295 294 293 289 289 294 302 307 307 293 295 305 307 306
301 302 303 305 305 305 296 293 297 303 300 302 306 305 302 302 300 296 299 301 302 297 294 293 294 292 294 292 295 295 294 292 291 290 288 290 306 306 298 301 301 306 306 307
301 302 302 304 305 305 299 294 299 301 299 298 302 304 304 304 307 302 301 300 302 303 296 294 293 292 291 290 288 296 292 296 294 295 295 301 304 301 304 304 306 307 307 308
302 302 301 303 304 304 301 291 293 297 294 293 292 294 299 306 309 306 297 302 307 304 304 299 297 295 294 291 292 293 296 302 298 298 299 303 306 306 309 309 308 310 310 308
302 301 301 303 303 303 302 289 292 297 295 289 290 302 300 308 309 308 307 306 304 304 299 297 296 295 296 292 294 294 297 300 298 297 301 304 308 310 311 312 312 311 311 309
302 301 301 302 303 303 296 291 292 297 296 290 294 298 301 303 306 306 304 302 298 296 297 294 295 294 293 292 292 290 297 296 296 295 303 303 303 309 312 307 306 307 307 307
302 301 301 302 302 302 294 291 296 296 297 292 289 295 298 300 302 304 302 301 297 295 293 293 294 295 294 291 288 294 296 300 299 299 301 303 305 307 308 306 307 308 308 307
302 301 302 302 303 290 292 289 293 299 295 291 287 287 294 297 296 295 296 298 297 295 292 292 292 292 293 288 287 295 298 301 300 301 303 300 302 303 306 308 308 308 307 308
302 302 302 303 303 295 289 295 302 298 295 294 286 287 292 295 292 291 292 294 294 294 293 293 292 292 290 287 291 295 297 300 300 302 302 301 304 304 304 305 305 305 305 306
302 302 302 294 289 287 292 307 303 298 293 287 288 286 286 294 292 292 292 292 290 292 290 290 293 289 288 291 292 294 297 298 301 302 302 302 302 302 303 304 305 304 305 305
302 297 293 288 293 302 300 292 288 287 288 291 289 290 288 292 290 290 291 290 288 287 290 291 288 287 292 295 297 298 299 301 302 299 299 300 299 302 303 304 305 305 305 306
294 292 293 296 304 296 292 285 282 282 282 285 287 290 289 293 290 290 291 290 289 287 290 289 286 286 293 296 296 299 300 302 304 304 304 302 303 304 304 305 306 306 306 306
296 295 297 297 295 292 287 281 284 283 281 285 284 285 289 289 292 291 291 290 290 288 292 289 285 292 296 298 298 298 300 302 302 302 302 304 305 305 305 306 305 305 306 307
298 295 292 288 288 281 281 281 282 282 285 286 287 286 288 290 290 288 288 287 286 289 285 285 289 293 299 300 301 300 300 301 302 303 305 305 306 307 306 305 306 306 306 307
289 287 281 282 279 283 282 283 284 287 290 290 289 288 290 288 288 288 286 288 287 282 280 283 288 293 298 301 302 299 298 302 303 304 304 304 304 304 306 306 306 305 305 305
287 287 280 282 285 286 288 288 288 291 292 292 290 290 290 289 289 287 285 283 282 283 283 286 294 297 297 299 299 299 300 300 300 302 303 303 302 304 305 305 305 306 306 304
289 286 283 286 286 286 286 287 288 291 293 294 293 290 288 288 289 285 283 283 282 285 291 294 295 295 296 296 297 298 300 301 301 302 302 303 303 303 301 304 305 306 305 304
286 283 287 287 287 286 288 288 289 293 293 289 290 287 286 290 287 286 288 285 288 291 293 294 295 296 297 298 299 299 298 297 297 298 299 298 299 299 298 299 302 304 304 303
Wind_Speed
16 18 20 22 24 30 11 2 3 3 3 7 1 4 5 2 3 2 6 1 2 1 1 2 2 4 1 5 2 4 1 6 3 1 2 3 2 3 5 7 5 1 3 9
15 17 19 20 20 18 2 3 3 4 5 5 0 2 1 2 2 4 4 3 1 3 3 2 0 2 0 5 4 6 5 3 4 8 8 5 5 3 5 5 3 4 5 8
15 16 19 20 20 17 3 3 3 5 6 1 7 3 1 4 3 4 4 2 3 4 6 5 2 2 5 3 4 6 8 4 7 8 6 3 2 1 2 5 3 3 7 7
16 17 18 20 21 18 3 4 1 2 0 3 3 3 2 2 4 2 3 4 1 3 2 2 2 2 4 5 3 4 5 4 3 2 1 2 1 2 1 4 5 5 5 4
14 16 16 19 22 17 5 2 2 4 1 3 3 2 2 2 3 3 3 3 3 3 5 6 6 4 1 2 5 4 4 2 2 1 1 2 1 2 4 3 0 5 3 5
12 14 15 17 21 10 3 2 1 3 3 2 3 3 2 3 1 3 3 2 4 4 4 3 1 3 5 3 4 2 3 6 4 3 2 2 4 3 3 3 4 3 4 5
10 12 13 15 15 11 1 1 1 4 3 1 1 1 1 2 2 3 4 3 3 1 6 6 5 9 9 9 8 3 5 5 3 2 3 1 6 2 4 4 4 3 3 4
9 10 11 12 12 12 2 1 2 2 0 1 2 3 2 5 5 2 2 4 2 2 4 5 5 6 5 6 5 6 3 5 4 4 3 5 4 4 5 4 6 2 1 3
7 8 9 10 11 11 3 2 1 2 4 4 3 2 2 1 3 5 3 4 5 5 4 4 4 4 4 2 3 4 6 6 6 3 4 7 9 2 3 4 6 3 2 1
6 6 8 9 10 10 3 3 2 2 2 4 1 2 3 3 2 1 4 6 6 4 3 3 3 4 4 3 4 2 3 3 4 2 4 7 7 3 4 5 9 2 1 2
5 6 7 8 8 10 4 3 2 2 2 5 1 2 2 1 2 3 3 3 4 4 4 3 3 3 4 3 2 3 5 5 3 3 1 7 5 4 6 7 2 2 1 1
5 5 6 6 7 8 4 1 2 1 3 5 2 5 5 4 3 5 2 3 2 3 5 0 3 2 2 4 3 1 1 7 5 9 8 4 5 2 1 3 3 2 3 2
5 5 5 6 6 7 4 2 3 2 3 6 3 6 3 1 5 3 4 2 3 1 2 4 2 2 4 4 6 2 2 4 3 3 2 5 6 3 2 4 3 4 3 3
6 5 5 5 6 7 5 1 1 1 3 2 7 3 4 4 2 3 3 5 4 5 2 3 3 2 2 3 3 4 5 5 5 3 5 4 2 4 5 4 3 4 3 3
7 5 4 5 7 8 2 1 2 1 4 3 5 5 3 3 4 8 5 6 4 2 2 2 2 2 3 1 1 3 5 7 5 7 7 4 2 3 3 5 4 5 4 2
6 5 3 4 6 7 1 3 1 1 2 3 3 3 3 3 6 8 6 3 4 4 3 2 2 3 3 4 4 6 4 4 7 5 4 4 4 4 4 6 5 4 4 4
6 4 4 5 4 2 3 5 3 2 1 3 4 5 3 1 4 3 3 4 2 3 2 0 1 2 3 2 4 6 7 8 6 4 8 2 3 5 5 7 5 6 6 5
5 4 5 6 5 2 3 2 1 5 4 3 1 4 2 1 1 2 2 2 3 4 2 1 2 2 2 4 9 7 6 4 3 6 2 5 7 6 5 5 5 7 6 4
4 4 4 3 2 1 3 2 4 1 4 3 2 4 5 2 1 2 3 2 2 1 1 3 4 0 6 9 8 7 7 7 7 6 5 7 7 8 6 6 6 6 3 4
2 1 1 0 4 5 4 5 4 4 4 3 3 1 3 3 1 1 3 2 3 2 5 3 3 6 6 8 9 7 5 7 9 9 6 6 5 7 6 6 4 4 1 4
1 2 2 2 1 3 3 2 2 1 2 2 3 5 3 1 4 3 2 3 2 2 5 5 2 5 7 6 7 7 4 8 11 6 9 7 11 10 8 6 4 2 2 3
2 1 0 1 2 2 4 2 1 2 6 2 4 5 5 2 2 4 2 4 2 6 3 3 2 7 4 6 4 6 7 8 7 5 11 10 10 8 7 6 4 2 1 3
1 1 3 3 2 3 6 7 3 2 2 2 1 1 3 1 2 3 3 4 6 2 2 5 6 3 5 6 4 2 6 7 9 10 11 11 9 7 6 6 4 4 3 3
2 4 2 3 0 2 3 3 3 4 2 1 2 1 2 1 3 3 4 4 3 2 2 6 3 3 7 6 2 5 7 8 11 11 10 9 7 6 5 5 4 4 4 4
3 2 2 2 1 1 2 3 1 2 1 1 2 1 2 1 3 2 2 3 5 5 6 3 3 6 7 6 1 5 8 8 7 8 8 7 7 6 4 1 1 2 2 2
2 2 2 0 2 2 1 1 1 1 1 0 1 2 3 3 2 3 5 3 4 2 2 3 5 6 5 1 5 7 6 8 7 6 7 7 7 5 1 2 4 4 1 2
2 0 0 1 1 2 2 1 2 1 2 1 2 1 2 2 2 2 2 1 2 2 2 3 3 5 5 4 6 7 7 7 6 4 3 4 5 3 0 5 5 5 2 1
Wind_Direction
4 0 358 357 356 342 37 42 56 298 41 58 20 147 195 258 302 295 263 222 249 106 111 49 143 188 299 338 179 100 93 123 109 208 314 266 101 94 110 108 275 123 157 270
5 1 358 359 0 10 1 51 275 320 84 119 328 262 270 259 303 277 323 283 286 52 56 88 193 126 289 351 85 151 180 36 57 354 354 356 64 56 105 105 84 208 136 268
6 4 356 357 356 359 63 63 24 332 47 45 128 113 354 293 276 256 261 274 8 65 41 9 76 51 1 21 78 69 86 102 145 185 202 177 112 12 102 124 123 207 230 283
4 5 358 356 353 351 67 34 292 188 321 355 93 132 146 249 298 268 346 27 60 150 79 37 20 46 16 30 34 47 94 110 135 161 127 129 199 319 12 209 216 172 265 228
4 4 1 358 353 345 71 85 60 359 28 326 114 87 145 193 271 217 314 118 240 154 161 185 196 136 210 213 21 62 6 142 113 124 55 9 269 323 290 227 289 262 273 269
1 4 6 6 3 2 68 323 317 99 316 26 92 203 228 226 251 258 219 216 130 167 202 145 97 139 96 76 135 101 76 128 94 240 334 34 350 227 244 270 226 212 237 261
357 2 6 11 17 39 119 252 91 77 282 64 160 350 273 277 280 266 309 123 131 163 99 116 67 60 75 61 32 69 119 94 76 167 21 198 242 246 231 237 269 250 274 321
348 357 3 7 13 17 62 298 88 104 212 242 315 337 310 321 319 264 299 0 325 321 56 64 45 355 22 28 40 25 70 111 93 136 187 285 292 208 182 174 276 193 247 331
337 351 358 2 6 8 78 270 211 101 120 252 306 276 6 305 334 346 355 341 318 53 76 69 129 188 199 271 356 101 68 68 113 138 167 210 239 184 139 99 298 265 173 287
321 340 348 355 4 8 65 283 248 99 143 266 153 200 182 124 86 212 308 337 9 31 79 99 149 210 177 171 182 208 36 27 156 132 224 290 244 177 144 89 239 208 205 217
295 320 336 346 5 5 49 271 247 127 170 274 267 322 147 64 90 146 277 45 347 39 72 121 202 144 210 108 199 185 181 153 206 98 140 273 164 82 165 214 218 188 175 90
269 295 316 337 358 3 52 319 342 319 153 243 294 270 261 239 196 143 1 167 152 176 89 108 110 126 92 156 224 72 234 182 189 171 216 259 277 255 268 155 144 181 142 176
247 276 300 324 344 357 16 236 298 30 51 318 20 263 336 132 198 173 117 295 179 107 162 152 159 153 126 159 239 171 248 156 168 74 269 260 274 270 186 179 172 167 128 105
232 256 287 310 332 339 358 207 268 93 105 128 281 324 280 313 159 102 106 134 57 98 82 108 133 155 147 200 204 174 194 123 161 252 273 278 274 206 170 144 106 101 92 106
230 243 272 307 326 330 331 225 242 207 134 206 272 298 293 330 122 90 74 89 91 64 59 76 208 143 113 316 46 261 182 175 159 217 220 158 195 163 151 121 112 124 121 94
219 238 273 306 327 350 37 23 313 351 136 91 336 298 332 69 71 80 73 70 85 82 115 216 280 268 117 185 227 261 218 206 177 216 155 174 154 118 124 126 125 120 84 39
214 237 269 291 320 73 147 188 225 139 91 92 316 331 308 42 91 42 46 33 80 104 120 45 201 296 93 104 210 250 229 221 186 156 119 93 200 171 122 115 104 81 63 41
213 237 270 294 312 331 341 289 331 140 95 76 155 269 7 327 87 87 353 76 27 13 143 54 192 353 60 262 246 253 269 272 265 197 231 176 125 112 97 84 87 73 52 14
220 256 292 33 40 95 231 138 90 56 128 161 134 165 218 5 70 100 36 75 83 309 167 240 109 272 226 226 232 240 227 190 193 146 133 125 118 123 105 99 81 87 36 354
227 115 116 4 229 227 81 17 32 13 343 42 201 132 244 100 38 13 94 23 165 171 243 108 143 253 251 247 226 236 240 194 140 117 127 127 127 133 124 112 113 105 321 302
121 173 164 237 302 64 37 78 119 319 293 192 238 187 171 278 126 166 191 174 167 163 251 144 226 273 250 263 222 216 218 179 190 172 158 144 138 140 134 131 128 121 11 349
166 164 326 10 61 65 123 213 336 181 223 230 174 221 196 236 110 108 217 158 95 229 142 121 228 252 284 311 274 215 182 167 164 142 124 124 128 136 139 142 147 122 31 3
102 102 73 93 312 68 171 183 224 237 215 236 221 225 173 36 65 76 120 158 217 80 128 216 225 286 321 317 271 145 164 147 122 118 123 127 131 139 141 155 159 135 85 28
125 139 132 171 258 247 182 167 188 245 172 289 180 200 172 190 104 133 156 218 113 209 173 225 250 283 307 312 283 141 153 142 134 129 126 129 139 141 157 128 138 114 65 11
93 68 154 154 218 238 211 234 328 275 288 104 113 74 125 166 137 192 104 155 243 197 210 241 296 302 300 290 135 133 137 121 111 120 127 133 135 148 132 190 199 150 131 37
77 84 83 269 91 331 9 2 27 300 312 64 27 155 149 191 160 145 217 168 217 231 242 284 314 316 312 244 114 103 103 113 128 140 153 144 149 112 200 255 248 248 228 355
87 348 40 137 189 229 265 290 270 268 56 77 58 164 144 336 172 174 38 183 239 276 313 306 314 342 15 30 89 91 101 103 104 107 114 84 94 115 213 260 253 241 216 95